www.pogodaiklimat.ru

Погода и климат >> Архив погоды >> Дания >> Kegnaes


ПОГОДА в Kegnaes

  • Прогноз погоды в Kegnaes
  • Монитор погоды в Kegnaes
  • Климат города

АРХИВ ПОГОДЫ в Kegnaes

Время (UTC), дата Ветер
(напр.,м/с)
 
Видим.   Явления Облачность Т
(С)
Тd
(С)
f
(%)
Тe
(С)
Тes
(С)
Комфортность P
(гПа)
Po
(гПа)
Тmin
(С)
Tmax
(С)
R
(мм)
R24
(мм)
S
(см)
05 17.05 Ю 3 5000 м дымка ясно +13.2 +12.2 94 +12 +13 1023.3 1021.0
04 17.05 Ю 2 6000 м дымка ясно +13.6 +12.6 94 +13 +13 1023.4 1021.1
06 17.05 Ю 3 6000 м дымка {ливн. осадки, дождь} ясно +13.3 +12.4 94 +12 +14 1023.2 1020.9 +12.0 +14.1
07 17.05 Ю 4 6000 м дымка ясно +13.0 +12.2 95 +11 +16 1023.0 1020.7
08 17.05 Ю 4 7000 м дымка ясно +12.9 +12.0 94 +11 +17 1022.9 1020.6
09 17.05 Ю 2 10 км {дымка} ясно +13.3 +11.9 91 +12 +24 опасность
простуды
1022.7 1020.4
11 17.05 В 1 9000 м дымка ясно +15.3 +13.2 87 +17 +35 опасность
простуды
1021.9 1019.6
10 17.05 ЮВ 1 10 км ясно +14.6 +13.0 90 +15 +31 опасность
простуды
1022.4 1020.1
12 17.05 В 3 9000 м дымка ясно +14.0 +12.4 90 +13 +26 опасность
простуды
1021.4 1019.2
13 17.05 В 4 9000 м дымка ясно +14.3 +13.0 92 +13 +22 1020.8 1018.6
14 17.05 В 5 9000 м дымка ясно +14.4 +12.8 90 +13 +19 1019.9 1017.7
15 17.05 В 7 8000 м дымка ясно +14.8 +12.9 88 +13 +15 1019.3 1017.0
17 17.05 В 9 9000 м дымка ясно +14.9 +13.1 89 +13 +13 1017.7 1015.5
16 17.05 В 6 10 км ясно +15.0 +13.0 88 +13 +15 1018.4 1016.2
18 17.05 В 10 12 км {дымка} ясно +15.3 +12.9 86 +13 +13 1016.6 1014.3 +12.6 +16.1
19 17.05 ЮВ 9 11 км ясно +13.8 +12.0 89 +11 +11 1016.2 1013.9
20 17.05 ЮВ 9 14 км ясно +14.0 +11.9 87 +11 +11 1015.6 1013.4
21 17.05 ЮВ 9 21 км ясно +14.0 +11.6 85 +11 +11 1015.2 1013.0
23 17.05 ЮВ 9 24 км ясно +13.5 +11.6 88 +11 +11 1013.9 1011.6
22 17.05 ЮВ 10 21 км ясно +13.8 +11.6 87 +11 +11 1014.5 1012.3
00 18.05 ЮВ 9 20 км ясно +13.3 +11.7 90 +10 +10 1013.2 1011.0
01 18.05 ЮВ 9 19 км ясно +12.9 +11.5 91 +10 +10 1012.3 1010.0
02 18.05 ЮВ 9 19 км ясно +12.8 +11.2 90 +10 +10 1011.6 1009.3
03 18.05 ЮВ 9 20 км ясно +13.3 +11.7 90 +10 +10 1013.2 1011.0
05 18.05 ЮВ 10 15 км ясно +12.5 +11.0 91 +9 +9 1009.6 1007.4
04 18.05 ЮВ 9 17 км ясно +12.8 +11.0 89 +10 +10 1010.2 1007.9
06 18.05 ЮВ 9 19 км ясно +12.8 +11.0 89 +10 +10 1010.7 1008.5
07 18.05 Ю 7 14 км ясно +12.5 +10.9 90 +10 +11 1009.5 1007.3
08 18.05 ЮВ 6 15 км ясно +13.1 +11.3 89 +11 +15 1009.6 1007.4
09 18.05 Ю 6 14 км н/о +13.3 +11.2 87 +11 +11 1009.8 1007.5
11 18.05 ЮЗ 5 18 км ясно +20.3 +14.3 68 +23 +30 комфорт 1010.2 1008.0
10 18.05 ЮЗ 2 18 км ясно +17.3 +13.1 76 +18 +32 опасность
простуды
1010.0 1007.8
12 18.05 З 6 11 км ясно +19.5 +14.9 75 +21 +26 комфорт 1010.7 1008.5
13 18.05 З 7 10 км ясно +18.6 +14.0 75 +19 +23 1011.3 1009.1
14 18.05 З 6 18 км ясно +18.9 +13.9 73 +20 +24 1011.7 1009.5
15 18.05 З 6 17 км ясно +19.2 +14.0 72 +20 +23 1011.5 1009.3
17 18.05 З 4 24 км ясно +16.3 +12.9 80 +16 +18 1011.8 1009.6
16 18.05 З 5 25 км ясно +17.7 +13.4 76 +17 +20 1011.7 1009.4
18 18.05 З 2 19 км {дымка} ясно +15.0 +12.8 87 +15 +16 1012.0 1009.8 +12.3 +20.5
19 18.05 СЗ 3 15 км ясно +14.7 +13.0 90 +14 +14 1011.9 1009.7
20 18.05 СЗ 3 11 км ясно +13.7 +12.4 92 +13 +13 1012.5 1010.2
21 18.05 С 2 7000 м слаб. дождь {морось} 1/1 150 м
[]
+13.1 +12.1 94 +13 +13 1012.3 1010.0 0.1
23 18.05 СЗ 3 4500 м дымка ясно +12.3 +11.6 95 +11 +11 1011.5 1009.2
22 18.05 С 1 6000 м в посл. час морось {ливн. осадки, дождь} ясно +13.0 +12.1 94 +13 +13 1012.1 1009.9
00 19.05 СЗ 4 1800 м дымка {ливн. осадки, дождь} 10/10 60 м
[]
+12.2 +11.7 97 +10 +10 1011.2 1008.9
01 19.05 СЗ 3 1900 м дымка 10/10 30 м
[]
+12.5 +12.2 98 +11 +11 1011.1 1008.8
02 19.05 С 3 2100 м дымка 10/10 30 м
[]
+12.5 +12.1 97 +11 +11 1010.9 1008.7
03 19.05 СВ 2 2700 м дымка 10/10 60 м
[]
+12.6 +12.2 97 +12 +12 1010.6 1008.4
05 19.05 В 4 200 м туман 10/10 60 м
[]
+13.1 +12.8 98 +11 +11 1010.6 1008.4
04 19.05 СВ 4 300 м туман {дымка} 10/10 30 м
[]
+12.6 +12.2 97 +11 +11 1010.5 1008.2
06 19.05 В 2 100 м туман {дымка} ?/? +13.0 +12.8 99 +12 +12 1010.6 1008.3 +12.0 +15.5
07 19.05 В 3 200 м туман 10/10 30 м
[]
+12.9 +12.7 99 +11 +11 1010.6 1008.4
08 19.05 В 1 100 м туман 10/10 30 м
[]
+12.7 +12.5 99 +13 +13 1010.4 1008.1
09 19.05 В 2 500 м туман 10/10 30 м
[]
+13.5 +13.2 98 +13 +13 1010.0 1007.7
11 19.05 В 3 1700 м в посл. час туман {дымка} 10/10 30 м
[]
+14.5 +14.2 98 +14 +14 1010.4 1008.2
10 19.05 В 3 1100 м в посл. час туман 10/10 30 м
[]
+13.5 +13.2 98 +12 +12 1010.5 1008.2
12 19.05 ЮВ 2 700 м туман {дымка} 6/6 30 м
[]
+14.8 +14.4 97 +14 +20 1010.5 1008.2
13 19.05 ЮЗ 1 600 м туман 5/5 30 м
[]
+14.9 +13.8 93 +15 +23 1010.4 1008.2
14 19.05 СВ 2 7000 м в посл. час туман ясно +16.8 +14.8 88 +17 +29 опасность
простуды
1010.1 1007.9
15 19.05 Ю 1 12 км {туман, дымка} ясно +18.3 +14.0 76 +20 +30 1010.1 1007.9
17 19.05 СЗ 3 8000 м дымка ясно +18.8 +16.4 86 +20 +23 1009.8 1007.6
16 19.05 З 4 7000 м дымка ясно +16.5 +14.4 87 +16 +20 1010.1 1007.9
18 19.05 СЗ 3 8000 м дымка {туман} ясно +17.5 +15.6 89 +17 +18 1009.9 1007.7 +12.6 +19.2
19 19.05 СЗ 4 6000 м дымка 5/5 270 м
[]
+15.4 +13.4 88 +14 +14 1010.1 1007.9
20 19.05 СЗ 5 9000 м дымка 5/5 330 м
[]
+14.1 +11.5 84 +12 +12 1010.9 1008.6
21 19.05 З 5 27 км {дымка} 10/10 400 м
[]
+13.5 +10.3 81 +12 +12 1011.7 1009.4
23 19.05 З 7 22 км 5/5 300 м
[]
+12.3 +10.3 88 +9 +9 1012.9 1010.6
22 19.05 З 8 26 км 5/5 480 м
[]
+12.8 +10.0 83 +10 +10 1012.2 1009.9
00 20.05 СЗ 7 10 км слаб. дождь {морось} 5/5 150 м
[]
+11.2 +9.9 92 +8 +8 1011.3 1009.1 0.3
01 20.05 СЗ 6 23 км в посл. час морось {ливн. осадки, дождь} 4/4 150 м
[]
+10.7 +9.7 94 +7 +7 1011.4 1009.1
02 20.05 З 7 20 км в посл. час морось {ливн. осадки} 10/10 210 м
[]
+10.8 +9.8 94 +7 +7 1012.3 1010.0
03 20.05 З 6 14 км слаб. дождь {ливн. осадки} 5/5 210 м
[]
+10.7 +9.5 92 +7 +7 1012.5 1010.3
05 20.05 З 7 14 км 9/9 300 м
[]
+11.0 +9.5 90 +7 +7 1014.3 1012.0
04 20.05 З 8 16 км в посл. час морось {ливн. осадки, дождь} 9/9 270 м
[]
+10.8 +9.4 91 +7 +7 1013.3 1011.0
06 20.05 З 5 15 км {ливн. осадки, дождь} 6/6 210 м
[]
+10.7 +9.1 90 +8 +8 1015.2 1012.9 +10.6 +17.6 0.0
07 20.05 З 5 15 км ясно +11.1 +9.0 87 +8 +11 1016.1 1013.8
08 20.05 З 7 14 км ясно +12.1 +9.3 83 +9 +12 1016.9 1014.7
09 20.05 З 7 16 км 1/1 450 м
[]
+13.2 +9.5 78 +11 +14 1017.8 1015.6
11 20.05 З 5 14 км ясно +15.0 +9.6 70 +14 +23 1019.3 1017.0
10 20.05 З 5 14 км ясно +14.8 +10.4 75 +13 +21 1018.6 1016.3
12 20.05 З 5 15 км ясно +15.1 +10.2 73 +14 +21 1020.0 1017.7
13 20.05 З 5 17 км ясно +15.2 +9.0 66 +14 +21 1020.4 1018.2
14 20.05 З 6 13 км ясно +15.9 +9.5 66 +15 +19 1021.0 1018.8
15 20.05 З 4 12 км ясно +16.6 +9.1 61 +16 +21 1021.6 1019.3
17 20.05 З 4 13 км ясно +15.8 +7.9 59 +15 +17 1022.4 1020.2
16 20.05 З 5 13 км ясно +15.7 +7.7 59 +15 +18 1022.0 1019.8
18 20.05 СЗ 4 13 км ясно +14.8 +8.2 65 +14 +14 1023.2 1021.0 +10.6 +17.2
19 20.05 СЗ 3 11 км ясно +13.2 +8.1 71 +12 +12 1023.7 1021.5
20 20.05 СЗ 3 11 км ясно +12.1 +7.2 72 +11 +11 1024.2 1021.9
21 20.05 СЗ 2 9000 м дымка ясно +11.8 +7.5 75 +11 +11 1024.6 1022.3
23 20.05 З 2 12 км ясно +10.6 +8.6 87 +9 +9 1025.4 1023.1
22 20.05 СЗ 3 15 км ясно +11.3 +7.6 78 +10 +10 1024.8 1022.5
00 21.05 З 2 13 км {дымка} ясно +10.7 +9.1 90 +10 +10 1025.6 1023.3
01 21.05 ЮЗ 2 10 км ясно +10.5 +9.4 93 +9 +9 1025.6 1023.3
02 21.05 З 3 8000 м дымка ясно +9.8 +8.7 93 +8 +8 1025.8 1023.5
03 21.05 ЮЗ 3 7000 м дымка ясно +9.6 +8.6 93 +7 +7 1025.7 1023.4
05 21.05 З 3 10 км ясно +11.1 +9.1 87 +9 +10 1026.0 1023.7
04 21.05 З 3 9000 м дымка ясно +10.5 +8.7 89 +9 +9 1025.9 1023.6
06 21.05 ЮЗ 3 12 км ясно +11.6 +8.9 83 +10 +13 1026.3 1024.0 +9.5 +14.9
07 21.05 ЮЗ 3 14 км ясно +12.9 +9.7 81 +12 +17 1026.6 1024.3
08 21.05 ЮЗ 4 13 км ясно +14.3 +10.3 77 +13 +19 1026.8 1024.6
09 21.05 ЮЗ 5 18 км ясно +15.6 +9.9 69 +15 +22 1026.8 1024.6
11 21.05 ЮЗ 5 22 км ясно +16.9 +10.3 65 +16 +25 1026.9 1024.6
10 21.05 З 3 19 км ясно +17.3 +11.0 66 +17 +29 опасность
простуды
1026.9 1024.7
12 21.05 З 5 17 км ясно +17.0 +10.6 66 +16 +25 1026.8 1024.5
13 21.05 З 5 17 км ясно +18.3 +10.2 59 +18 +26 1026.7 1024.5
14 21.05 З 4 17 км ясно +18.6 +10.5 59 +19 +26 1026.6 1024.4
15 21.05 З 5 17 км ясно +18.0 +8.6 54 +18 +22 1026.4 1024.1
17 21.05 З 4 14 км ясно +16.9 +8.3 57 +17 +18 1025.7 1023.5
16 21.05 З 5 17 км ясно +17.2 +8.5 57 +17 +20 1026.0 1023.7
18 21.05 З 4 17 км ясно +15.7 +7.6 59 +15 +16 1025.6 1023.4 +11.6 +19.2
19 21.05 З 3 15 км ясно +14.1 +6.8 61 +13 +13 1025.3 1023.0
20 21.05 З 3 14 км ясно +13.0 +7.8 71 +12 +12 1025.4 1023.1
21 21.05 СЗ 3 14 км ясно +11.7 +7.4 75 +10 +10 1025.3 1023.0
23 21.05 СЗ 3 11 км ясно +10.6 +8.6 87 +8 +8 1025.1 1022.8
22 21.05 З 3 16 км ясно +11.6 +8.6 82 +10 +10 1025.1 1022.8
00 22.05 СЗ 3 9000 м дымка ясно +10.2 +8.7 90 +8 +8 1025.0 1022.7
01 22.05 СЗ 3 8000 м дымка ясно +9.7 +8.6 93 +7 +7 1024.7 1022.4
02 22.05 С 3 5000 м дымка ясно +9.8 +9.1 95 +8 +8 1024.4 1022.1
03 22.05 С 2 4900 м дымка ясно +9.7 +9.1 96 +8 +8 1024.3 1022.0
05 22.05 С 2 300 м туман {дымка} 4/4 30 м
[]
+9.4 +8.9 97 +8 +9 1024.1 1021.8
04 22.05 штиль 0 4400 м дымка ясно +9.8 +9.2 96 +9 +9 1024.2 1021.9
06 22.05 С 1 6000 м в посл. час туман {дымка} ясно +10.9 +10.4 97 +10 +14 1023.6 1021.4 +9.2 +15.8
07 22.05 Ю 1 10 км ясно +12.0 +10.6 91 +12 +19 1023.6 1021.3
08 22.05 ЮВ 2 10 км ясно +13.6 +11.3 86 +13 +22 1023.4 1021.1
09 22.05 ЮВ 2 10 км {дымка} ясно +13.5 +10.7 83 +13 +26 опасность
простуды
1023.2 1021.0
11 22.05 ЮВ 3 14 км ясно +14.1 +10.7 80 +13 +27 опасность
простуды
1022.4 1020.1
10 22.05 В 2 12 км ясно +14.0 +10.7 80 +13 +28 опасность
простуды
1023.0 1020.7
12 22.05 В 3 16 км {дымка} ясно +15.1 +10.3 73 +15 +28 опасность
простуды
1021.9 1019.7
13 22.05 В 4 21 км ясно +14.8 +10.4 75 +14 +24 1021.4 1019.2
14 22.05 В 4 20 км ясно +15.2 +10.6 74 +14 +23 1021.0 1018.7
15 22.05 СВ 3 12 км ясно +15.5 +11.4 77 +15 +21 1020.4 1018.2
17 22.05 Ю 4 11 км ясно +14.7 +12.9 89 +14 +15 1019.3 1017.0
16 22.05 СВ 4 12 км ясно +15.5 +12.6 83 +15 +18 1019.8 1017.5
18 22.05 Ю 4 11 км ясно +14.2 +12.8 91 +13 +13 1019.0 1016.8 +10.9 +16.1
19 22.05 Ю 4 11 км ясно +13.8 +12.3 91 +12 +12 1018.7 1016.4
20 22.05 Ю 4 15 км ясно +14.1 +10.6 79 +13 +13 1018.5 1016.2
21 22.05 Ю 4 14 км ясно +13.9 +10.3 79 +12 +12 1018.1 1015.9
23 22.05 Ю 3 13 км ясно +13.7 +10.0 78 +13 +13 1017.3 1015.0
22 22.05 Ю 4 13 км ясно +13.9 +10.7 81 +13 +13 1017.7 1015.4
00 23.05 Ю 3 13 км ясно +13.7 +11.2 85 +13 +13 1016.9 1014.6
01 23.05 Ю 3 11 км ясно +14.0 +10.8 81 +13 +13 1016.5 1014.3
02 23.05 ЮВ 3 12 км ясно +13.5 +11.0 85 +12 +12 1015.8 1013.6
03 23.05 В 3 12 км {дымка} ясно +13.7 +11.1 84 +13 +13 1015.4 1013.2
05 23.05 СВ 3 14 км ясно +13.7 +10.8 83 +13 +14 1015.3 1013.0
04 23.05 ЮВ 2 13 км ясно +13.7 +10.8 83 +13 +13 1015.2 1013.0
06 23.05 СВ 3 14 км {дымка} ясно +14.0 +11.0 82 +13 +16 1015.0 1012.8 +13.5 +14.2
07 23.05 В 3 13 км ясно +14.2 +11.3 83 +13 +18 1014.9 1012.7
08 23.05 СВ 2 12 км ясно +15.0 +11.9 82 +15 +24 1014.8 1012.6
09 23.05 ЮВ 5 12 км ясно +15.3 +12.0 81 +14 +21 1014.2 1012.0
11 23.05 ЮВ 5 12 км ясно +16.1 +12.7 80 +15 +23 1013.7 1011.5
10 23.05 ЮВ 6 11 км ясно +15.6 +12.6 82 +14 +21 1013.9 1011.7
12 23.05 ЮВ 6 15 км ясно +15.5 +13.2 86 +14 +20 1013.3 1011.0
13 23.05 Ю 7 5000 м дождь 4/4 120 м
[]
+15.8 +12.5 81 +14 +17 1013.1 1010.8 0.7
14 23.05 Ю 2 10 км в посл. час дождь {ливн. осадки} ясно +18.9 +12.2 65 +21 +33 комфорт 1013.0 1010.8 0.6
15 23.05 З 6
{9}
12 км {ливн. осадки, дождь} ясно +19.5 +11.0 58 +20 +24 1013.1 1010.9 1
17 23.05 З 7 11 км ясно +15.4 +11.8 79 +14 +14 1014.3 1012.0
16 23.05 З 4 11 км ясно +18.8 +11.1 61 +19 +23 1013.5 1011.3
18 23.05 З 8 9000 м дымка {ливн. осадки, дождь} 5/5 270 м
[]
+12.6 +10.5 87 +10 +10 1015.1 1012.8 +12.6 +20.0
19 23.05 З 8 12 км 10/10 400 м
[]
+11.9 +8.9 82 +9 +9 1015.5 1013.2
20 23.05 З 7 12 км 9/9 480 м
[]
+11.5 +8.3 81 +8 +8 1016.3 1014.0
21 23.05 З 8
{13}
12 км {дымка} 4/4 600 м
[]
+11.4 +7.6 77 +8 +8 1016.8 1014.6
23 23.05 СЗ 6 10 км 5/5 570 м
[]
+11.0 +7.3 78 +8 +8 1017.1 1014.8
22 23.05 З 7 11 км 9/9 660 м
[]
+11.3 +7.2 76 +8 +8 1017.0 1014.7
00 24.05 З 6
{14}
8000 м дымка 6/6 630 м
[]
+10.9 +7.3 78 +8 +8 1017.2 1014.9
01 24.05 СЗ 7 15 км 5/5 570 м
[]
+10.9 +7.2 78 +8 +8 1017.2 1014.9
02 24.05 З 9 16 км 9/9 840 м
[]
+10.8 +7.2 78 +7 +7 1017.1 1014.8
03 24.05 СЗ 7 16 км 5/5 660 м
[]
+10.5 +6.2 75 +7 +7 1017.5 1015.2

 

Местоположение метеостанции Kegnaes (Дания): широта 54.85 долгота 9.98 высота над уровнем моря 17 м.

В архиве по умолчанию представлена погода в Kegnaes за последнюю неделю. Архивные данные за месяц целиком и за предыдущие месяцы, начиная с января 2011 года, Вы можете получить, выбрав интересующий диапазон дат из раскрывающегося списка и нажав кнопку "Ввод!".

Внимание! Время в таблицах - всемирное. Для получения местного времени необходимо прибавить поправку, которая в Kegnaes равна 1 ч.

Смотрите также архив погоды в соседних городах и на ближайших метеорологических станциях:

Погода в Olpenitz (Германия) (20 км)
Погода в Gluecksburg (Германия) (31 км)
Погода в Taasinge (Дания) (42 км)
Погода в Leuchtturm Kiel (Германия) (43 км)
Погода в Toroe (Дания) (45 км)
Погода в Schleswig (Германия) (45 км)
Погода в Schleswig Airport (Германия) (52 км)
Погода в Kiel-Holtenau (Германия) (53 км)
Погода в Aarslev (Дания) (59 км)
Погода в Skrydstrup (Дания) (62 км)

Пояснения к столбцам:

Ветер - указаны скорость ветра в м/с - средняя за 10 мин, порывы в срок и между сроками (в фигурных скобках) и направление, откуда дует ветер: С - северный, СВ - северо-восточный, В - восточный, ЮВ - юго-восточный, Ю - южный, ЮЗ - юго-западный, З - западный, СЗ - северо-западный.
Видимость - горизонтальная дальность видимости в метрах или километрах. При видимости от 1 до 10 км при отсутствии осадков обычно наблюдается дымка, при ухудшении видимости до 1 км и менее - туман. В сухую погоду видимость может ухудшаться дымом, пылью или мглою.
Явления - указаны атмосферные явления, наблюдавшиеся в срок или в последний час перед сроком; фигурными скобками обозначены явления, наблюдавшиеся между сроками (за 1-3 часа до срока); квадратными скобками обозначены град или гололедные отложения с указанием их диаметра в мм.
Облачность - указаны через наклонную черту общая и нижняя облачность в баллах и высота нижней границы облаков в метрах; квадратными скобками обозначены формы облаков: Ci - перистые, Cs - перисто-слоистые, Cc - перисто-кучевые, Ac - высококучевые, As - высокослоистые, Sc - слоисто-кучевые, Ns - слоисто-дождевые, Cu - кучевые, Cb - кучево-дождевые. Подробнее классификацию облаков см. в Атласе облаков (PDF).
T - Температура воздуха - температура, измеренная на высоте 2 м над землей.
Td - Температура точки росы - температура, при понижении до которой содержащийся в воздухе водяной пар достигнет насыщения.
f - Относительная влажность воздуха - влажноcть воздуха, измеренная на высоте 2 м над землей.
Te - Эффективная температура - температура, которую ощущает одетый по сезону человек в тени. Характеристика душности погоды. При расчете учитывается влияние влажности воздуха и скорости ветра на теплоощущения человека.
Tes - Эффективная температура на солнце - температура, которую ощущает человек, с поправкой на солнечный нагрев. Характеристика знойности погоды. Зависит от высоты солнца над горизонтом, облачности и скорости ветра. Ночью, в пасмурную погоду, а также при ветре 12 м/с и более поправка равна нулю.
P - Атмосферное давление - приведенное к уровню моря атмосферное давление.
Po - Атмосферное давление - измеренное на уровне метеостанции атмосферное давление.
Tmin - Минимальная температура - минимум температуры воздуха на высоте 2 м над землей.
Tmax - Максимальная температура - максимум температуры воздуха на высоте 2 м над землей.
R - Количество осадков - Количество выпавших осадков за период времени, мм. При наведении курсора мыши на число - период времени, за который выпало указанное количество осадков.
R24 - Количество осадков - Количество выпавших осадков за 24 часа, мм.
S - Снежный покров - Высота снежного покрова, см. При наведении курсора мыши на число - состояние снежного покрова и степень покрытия местности в баллах.